Regional Weather Roundup
Issued by NWS

Home | Current Version | Previous Version | Text Only | Print | Product List | Glossary On
Versions: 1 2 3 4 5 6 7 8 9 10 11 12 13 14 15 16 17 18 19 20 21 22 23 24 25 26 27 28 29 30 31 32 33 34 35 36 37 38 39 40 41 42 43 44 45 46 47 48 49 50
000
ASUS45 KTFX 262119
RWRMT
MONTANA HOURLY WEATHER ROUNDUP
NATIONAL WEATHER SERVICE GREAT FALLS MT
219 PM MST FRI DEC 26 2014

NOTE: "FAIR" INDICATES FEW OR NO CLOUDS BELOW 12000 FEET WITH NO
SIGNIFICANT WEATHER AND/OR OBSTRUCTIONS TO VISIBILITY.

* THESE STATIONS ARE NOT UNDER NWS QUALITY CONTROL. THEY DO NOT
   REPORT WEATHER SUCH AS PRECIPITATION OR FOG.

MTZ001>007-043-262200-
WEST OF THE DIVIDE
CITY           SKY/WX    TMP DP  RH WIND       PRES   REMARKS
KALISPELL      CLOUDY    28  21  75 N5        30.16S WCI  22
MISSOULA       PTCLDY    28  23  81 CALM      30.15F
BUTTE          PTCLDY    19  14  81 SW5       30.02F WCI  12
MULLAN PASS    LGT SNOW  19  14  81 VRB5      30.03S WCI  12
* ESSEX        N/A       25  20  81 NW6        N/A   WCI  18
* HAMILTON APT PTSUNNY   28  21  75 W3        30.13S
* LIBBY APT    SUNNY     30  21  69 CALM      30.21F
* LINCOLN      N/A       26  16  66 S2G7       N/A
* LOOKOUT PASS N/A       22  17  81 E2         N/A
* POLSON       N/A       30  26  85 N/A        N/A
* RONAN APT    PTCLDY    32  27  82 N/A        N/A
* SEELEY LAKE  N/A       30  21  69 W2         N/A
* THOMP F APT  PTCLDY    23   5  46 N7G13      N/A   WCI  15
$$

MTZ008-052>055-262200-
SOUTHWEST MONTANA
CITY           SKY/WX    TMP DP  RH WIND       PRES   REMARKS
BOZEMAN        FOG       18  16  92 CALM      30.08S
DILLON         CLOUDY    23  12  63 CALM      30.02S
* W YELLOWSTON PTSUNNY   14   4  64 NW1        N/A
* THREE FORKS  PTSUNNY   23  23 100 N/A        N/A
* TWIN BRIDGES PTCLDY    21   9  60 N/A        N/A
* BOULDER HILL N/A       18  10  71 N6         N/A   WCI  10
* MONIDA PASS  N/A       17   8  68 NW13       N/A   WCI   3
* RAYNOLDS PAS N/A       15 -30  11 N/A        N/A
* WHITEHALL    N/A       27  15  61 SW5        N/A   WCI  21
* WISE RIVER   N/A       19  12  74 E2G7       N/A
$$

MTZ009>010-012-014-046-048-049-054-262200-
EAST SLOPES AND CENTRAL MONTANA
CITY           SKY/WX    TMP DP  RH WIND       PRES   REMARKS
CUT BANK       SUNNY     18  14  84 SW3       30.05F
GREAT FALLS    SUNNY     18  16  92 SW10      30.10F WCI   6
HELENA         PTCLDY    25  18  75 CALM      30.10F
MALMSTROM AFB  PTSUNNY   19  18  96 SW10      30.13F WCI   8
* CONRAD       SUNNY     23  18  81 CALM       N/A
* DEARBORN     N/A       23  18  81 S1         N/A
* EAST GLACIER N/A       23  12  63 W10G16     N/A   WCI  13
* MONARCH      N/A       14   9  80 NW6        N/A   WCI   5
* PENDROY      N/A       19  14  81 SW9        N/A   WCI   8
* ROGERS PASS  N/A       26  12  55 N/A        N/A
* SWEET GRASS  N/A       21  15  78 SW9        N/A   WCI  11
* WHITE SULPH  N/A       22  12  65 S3         N/A
$$

MTZ011-013-016-021-035-040-045-047-050-051-262200-
NORTH CENTRAL MONTANA
CITY           SKY/WX    TMP DP  RH WIND       PRES   REMARKS
HAVRE          SUNNY     25  16  69 W12       30.13S WCI  14
LEWISTOWN      LGT SNOW  19  18  96 NW9       30.06S WCI   8
* N BAR RANCH  PTSUNNY   21  12  68 NW16G24   30.01S WCI   7
* CHINOOK      SUNNY     27  19  72 SW10      30.12F WCI  18
* MALTA APT    SUNNY     28  19  69 W9         N/A   WCI  19
* CHESTER      N/A       24  15  68 W5         N/A   WCI  18
* DENTON       N/A       22  17  81 NW8G13     N/A   WCI  13
* GEYSER       N/A       17  13  84 W14G20     N/A   WCI   3
* LOMA         N/A       24  17  75 SW6        N/A   WCI  17
$$

MTZ017>020-022>027-061-062-262200-
NORTHEAST MONTANA
CITY           SKY/WX    TMP DP  RH WIND       PRES   REMARKS
GLASGOW        PTSUNNY   27  18  69 S3        30.07S
GLENDIVE       CLOUDY    27  18  69 SE7       30.09F WCI  19
JORDAN         CLOUDY    28  19  69 W12       30.05S WCI  18
SIDNEY         CLOUDY    19  14  81 E3        30.15S
WOLF POINT     SUNNY     19  12  74 E8        30.10F WCI   9
* BEAVER HILL  N/A       25  14  63 W4G10      N/A
* CIRCLE       N/A       31  23  72 S4G12      N/A
* LINDSAY DVD  N/A       26  19  75 S9         N/A   WCI  17
* NAVAJO       N/A       15  12  88 S4         N/A
* PLENTYWOOD A SUNNY     14  12  92 S6        30.11S WCI   5
* POPLAR APT   SUNNY     18  14  84 NE8       30.10F WCI   8
* SACO         N/A       26  21  81 W5         N/A   WCI  20
$$

MTZ028>042-056>058-262200-
SOUTHCENTRAL AND SOUTHEAST MONTANA
CITY           SKY/WX    TMP DP  RH WIND       PRES   REMARKS
BAKER          CLOUDY    23  14  68 W6        30.08F WCI  16
BILLINGS       CLOUDY    21  14  74 SW9       30.04R WCI  11
LIVINGSTON     PTSUNNY   23  14  68 W9        30.03S WCI  13
MILES CITY     PTCLDY    27  19  72 S8        30.08S WCI  19
* BIG TIMBER A PTCLDY    23  14  68 SW12G18   30.02R WCI  11
* FORSYTH APT  PTSUNNY   27  19  72 SW3       30.07F
* LAUREL APT   CLOUDY    21  12  68 SW6        N/A   WCI  13
* ROUNDUP APT  PTSUNNY   21  12  68 N/A        N/A
* ALZADA       N/A       21  14  74 SW3        N/A
* HYSHAM       N/A       22  13  68 W8         N/A   WCI  13
* LAME DEER    N/A       22  18  85 W6         N/A   WCI  14
* ROSCOE HILL  N/A       23   3  42 VRB4       N/A
$$

REGIONAL REPORTS...DAKOTAS
CITY           SKY/WX    TMP DP  RH WIND       PRES   REMARKS
WILLISTON      CLOUDY    18  12  77 S5        30.14F WCI  11
DICKINSON      PTCLDY    25  14  63 N5        30.08R WCI  19
BEACH          CLOUDY    25  16  69 W8        30.09S WCI  16
CROSBY         CLOUDY    10   9  96 CALM      30.15S
TIOGA          CLOUDY    16  14  92 NW3       30.14S
WATFORD CITY   CLOUDY    18  14  84 CALM      30.12S
BISMARCK       CLOUDY    18  10  71 N7        30.17R WCI   9
GRAND FORKS    PTCLDY    16   9  74 NW12      30.19R WCI   3
FARGO          CLOUDY    25  18  75 N12       30.16R WCI  14
BUFFALO SD     PTCLDY    21  12  68 NW6       30.01S WCI  13
RAPID CITY     CLOUDY    18  12  77 NE7       30.07S WCI   9
$$

REGIONAL REPORTS...WYOMING/IDAHO/WASHINGTON
CITY           SKY/WX    TMP DP  RH WIND       PRES   REMARKS
GILLETTE       CLOUDY    19  12  74 CALM      30.01R
SHERIDAN       SUNNY     19  10  68 CALM      30.02S
CODY           PTCLDY    21  12  68 SW6       29.98S WCI  13
YELLOWSTONE LA PTCLDY    14   3  61 VRB3      29.90S
SALMON         CLOUDY    27  19  72 CALM      30.11S
MULLAN PASS    LGT SNOW  19  14  81 VRB5      30.03S WCI  12
SAND POINT     CLOUDY    32  25  75 SE3       30.24R
SPOKANE        PTCLDY    28  27  96 E5        30.22F WCI  22
$$

REGIONAL REPORTS...ALBERTA
CITY           SKY/WX    TMP DP  RH WIND       PRES   REMARKS
CALGARY        SUNNY     25  10  53 SW5       30.00F WCI  19
MEDICINE HAT   SUNNY     25  19  78 SW10      30.10F WCI  15
EDMONTON       SUNNY     14   9  80 W5        30.00F WCI   6
WATERTON GATE  N/A       28  14  56 SW15G22    N/A   WCI  16
CARDSTON       N/A       25  19  78 SW5        N/A   WCI  19
$$

REGIONAL REPORTS...SASKATCHEWAN
CITY           SKY/WX    TMP DP  RH WIND       PRES   REMARKS
SWIFT CURRENT  LGT SNOW  14  12  92 W12G18    30.04S
REGINA         PTSUNNY    5   1  83 SE6       30.12F WCI  -6
VAL MARIE      N/A       25  19  78 NW5        N/A   WCI  19
ASSINIBOIA     N/A       14  10  84 S2         N/A

$$



USA.gov is the U.S. government's official web portal to all federal, state and local government web resources and services.